Dewpoint
71 71 70 69 60 59 55 56 59 59 59 62 57 56 59 62 59 55 67 69 69 71 73 74 76 76 75 76 76 76 74 75 75 75 75 75 75 75 74 75 74 74 74 74 73 73 73 73 71
70 69 70 66 59 54 53 56 57 58 59 59 59 60 60 60 64 65 66 69 71 72 74 75 76 76 75 76 76 76 75 75 75 75 75 75 75 74 75 75 74 74 73 73 73 73 73 73 72
69 68 66 62 57 54 54 56 57 57 58 59 59 61 61 62 64 65 67 69 70 73 74 74 77 77 75 75 76 75 75 75 74 75 75 75 75 74 74 74 74 74 73 73 73 72 72 72 71
66 69 67 59 55 57 57 57 56 56 58 60 60 59 62 65 63 65 68 69 71 73 73 76 76 75 75 76 75 75 74 75 75 75 75 75 74 74 74 74 74 73 73 73 73 72 72 72 71
70 65 57 55 55 56 58 59 56 57 58 60 60 59 62 64 66 66 66 68 72 73 74 74 77 77 76 75 75 74 75 75 75 75 75 75 75 74 74 74 74 74 73 73 73 73 72 72 72
64 63 55 53 55 56 58 63 59 58 59 59 59 59 62 65 64 65 65 71 72 73 74 74 76 77 76 75 75 75 75 74 74 74 74 75 75 75 74 74 73 73 73 73 73 73 73 72 72
59 58 54 53 55 55 59 61 59 59 59 59 60 59 63 63 64 65 66 71 72 73 73 74 73 74 75 75 75 75 75 74 74 74 74 74 74 74 74 74 73 73 73 73 73 73 73 72 72
62 58 55 56 55 55 57 61 60 59 59 62 61 59 60 62 63 62 65 70 71 73 73 73 73 73 73 73 75 75 75 75 74 74 74 74 73 73 73 75 75 73 72 72 72 73 73 72 72
61 57 54 56 55 56 58 58 60 60 60 60 61 60 62 62 62 60 65 69 70 72 73 73 72 73 73 73 73 74 75 75 75 74 74 74 72 72 72 73 73 71 71 71 71 72 73 72 72
62 57 54 55 53 52 57 58 58 59 60 60 61 62 61 61 59 60 65 67 69 70 71 71 71 72 72 72 73 72 73 73 73 72 67 68 70 72 73 73 73 72 73 73 72 72 72 71 69
60 56 56 54 54 54 54 57 60 60 60 61 61 59 57 57 58 63 64 66 68 69 70 70 70 71 71 71 72 72 72 72 72 68 66 68 72 72 72 71 69 62 67 70 71 71 68 69 70
54 55 54 53 52 53 52 52 59 60 60 62 62 58 55 55 63 63 63 65 67 68 68 68 69 70 69 71 71 71 71 70 71 71 68 69 69 70 69 71 69 69 69 69 70 71 70 70 69
52 53 53 53 53 53 51 51 57 60 62 62 61 59 58 61 63 64 64 64 65 66 66 67 68 69 69 69 69 70 69 70 70 71 70 71 68 66 69 71 71 70 71 71 70 71 70 67 64
50 52 50 52 51 52 52 50 56 61 62 61 61 62 62 62 63 63 63 63 63 63 64 66 68 68 68 67 67 67 68 69 70 71 71 71 71 71 71 71 71 71 71 71 69 69 69 67 66
41 44 48 51 51 51 53 49 59 62 62 61 60 61 62 62 62 62 62 63 63 61 62 64 67 68 67 67 67 66 68 67 70 71 72 71 68 71 71 71 71 71 71 70 69 69 68 64 66
39 42 42 49 52 52 50 46 59 62 61 61 60 60 61 62 61 62 62 62 62 61 61 64 65 68 66 69 68 69 68 66 69 71 72 71 70 72 71 71 71 71 71 71 70 69 67 64 67
35 35 38 44 51 51 51 47 59 61 60 60 60 60 61 61 62 62 62 62 61 61 62 64 64 68 66 69 68 69 69 69 69 70 70 72 72 72 69 70 71 69 70 72 70 68 68 66 66
31 37 38 39 48 48 50 47 56 59 60 60 60 60 61 60 60 62 62 62 62 63 63 63 64 68 67 70 68 68 68 68 69 70 70 71 72 72 71 71 68 68 71 71 70 67 67 66 64
32 35 37 39 42 48 45 47 50 58 58 60 60 60 60 60 61 62 62 61 62 64 64 63 64 67 68 69 68 67 65 66 68 68 70 71 72 73 72 71 70 70 71 70 68 64 64 61 63
26 28 34 39 39 41 43 46 49 56 57 58 59 59 60 60 60 62 62 61 61 64 64 64 64 66 68 68 68 68 67 67 68 68 72 72 72 73 72 71 71 71 71 69 69 67 67 62 63
25 26 28 37 38 35 40 41 48 51 56 57 58 59 58 57 59 60 62 61 62 63 64 65 65 66 67 69 68 69 69 68 68 67 69 72 73 73 73 72 72 71 71 70 70 68 65 60 64
24 26 27 32 36 33 37 35 40 48 53 55 56 57 57 56 59 60 61 61 60 61 64 66 67 67 67 69 68 67 67 67 67 66 67 71 72 73 73 73 73 71 72 71 71 68 67 59 59
26 27 28 31 34 34 33 35 36 48 52 53 53 54 54 57 56 57 60 60 60 62 64 65 69 68 68 69 68 67 66 67 67 67 66 69 72 71 72 73 72 71 72 71 70 71 68 65 60
30 31 32 32 31 30 32 32 34 46 52 53 52 55 55 57 57 56 57 57 60 62 63 65 68 68 69 69 69 67 67 67 66 66 66 67 70 71 73 73 72 72 72 71 70 71 69 68 65
31 30 28 27 26 26 32 29 31 46 52 53 52 56 56 56 56 56 57 56 60 63 64 65 67 69 69 69 69 69 68 68 67 66 65 66 70 70 71 74 73 72 72 72 71 71 70 69 70
30 29 28 25 23 23 26 27 28 31 37 53 54 56 57 54 54 56 57 57 58 63 65 65 66 67 69 69 69 69 69 69 67 66 66 65 68 71 71 73 73 72 73 73 73 72 71 69 69
30 28 26 20 23 20 22 22 24 25 27 50 54 55 56 55 54 56 57 57 58 62 65 66 66 66 69 69 69 70 70 68 68 68 68 65 68 71 71 72 73 72 73 73 73 73 73 72 70
27 27 22 18 19 14 16 17 22 21 21 26 51 55 56 54 55 54 56 58 58 60 64 66 67 66 67 69 69 68 69 72 70 68 68 71 67 70 71 71 73 73 73 72 72 72 73 73 72
26 23 26 22 16 15 14 15 20 22 24 23 38 53 53 53 55 55 56 57 58 59 63 66 67 67 67 68 70 69 69 68 73 70 67 67 69 68 69 71 72 73 73 72 72 71 73 72 72
32 19 18 15 14 16 18 15 19 21 23 23 22 49 52 53 54 55 57 57 58 59 62 64 67 67 68 69 69 71 71 70 68 72 70 68 68 70 70 72 72 73 73 73 72 72 72 73 72
Lifted_Index
0 -0 -0 -1 -1 -1 -1 -2 -2 -2 -2 -1 -1 -1 -1 -1 -0 0 1 0 -0 -1 -3 -4 -4 -4 -4 -5 -5 -5 -5 -5 -5 -5 -5 -5 -6 -6 -6 -6 -6 -5 -5 -5 -5 -5 -5 -4 -4
0 -0 -1 -1 -1 -1 -1 -2 -2 -2 -2 -1 -1 -1 -1 -0 0 1 1 -0 -1 -2 -3 -4 -4 -4 -4 -5 -5 -5 -5 -5 -5 -5 -5 -6 -6 -6 -6 -6 -6 -5 -5 -5 -5 -5 -5 -4 -4
-0 -1 -1 -1 -1 -1 -1 -2 -2 -2 -1 -1 -1 -1 -0 -0 1 1 0 -1 -2 -3 -3 -4 -5 -4 -4 -4 -5 -5 -5 -5 -5 -5 -5 -6 -6 -6 -6 -5 -5 -5 -5 -5 -5 -5 -5 -5 -5
-1 -1 -1 -1 -1 -1 -2 -2 -2 -2 -1 -1 -1 -0 0 0 1 1 -0 -1 -2 -3 -4 -4 -5 -4 -4 -4 -4 -4 -5 -5 -5 -5 -5 -5 -5 -5 -5 -5 -5 -5 -5 -5 -5 -4 -4 -4 -5
-1 -1 -1 -1 -1 -1 -1 -2 -2 -2 -1 -1 -1 0 0 1 0 0 -0 -2 -3 -3 -4 -4 -5 -5 -4 -4 -4 -4 -4 -5 -5 -5 -5 -5 -5 -5 -5 -5 -5 -5 -4 -4 -4 -4 -4 -4 -4
-1 -1 -0 -1 -1 -1 -1 -2 -2 -2 -2 -1 -1 0 1 1 0 0 -1 -2 -3 -4 -4 -4 -5 -5 -4 -4 -4 -4 -5 -5 -5 -5 -5 -5 -5 -5 -5 -5 -4 -4 -4 -4 -4 -4 -4 -4 -4
-0 -0 -0 -0 -1 -1 -1 -2 -2 -2 -2 -2 -1 0 0 0 0 -0 -1 -2 -3 -4 -4 -4 -4 -4 -4 -4 -4 -4 -5 -5 -5 -5 -5 -4 -5 -5 -5 -4 -4 -4 -4 -4 -4 -4 -4 -4 -3
-1 -0 -0 -0 -1 -1 -1 -2 -3 -3 -2 -2 -1 -0 0 0 0 -0 -1 -2 -3 -3 -4 -4 -4 -4 -4 -4 -4 -4 -5 -5 -5 -5 -4 -4 -4 -4 -4 -4 -4 -4 -4 -4 -4 -4 -4 -4 -4
-2 -1 -0 -0 -1 -1 -2 -2 -2 -2 -2 -1 -1 -1 0 0 -0 -1 -1 -2 -2 -3 -3 -4 -3 -3 -3 -4 -4 -4 -4 -5 -4 -4 -4 -4 -4 -4 -4 -4 -4 -4 -4 -4 -3 -3 -3 -3 -3
-2 -1 -0 -0 -0 -1 -1 -2 -2 -2 -1 -1 -1 -1 0 0 -0 -0 -1 -1 -2 -3 -3 -3 -3 -3 -3 -3 -3 -3 -4 -4 -4 -3 -3 -3 -3 -4 -4 -4 -4 -3 -3 -3 -3 -3 -3 -2 -2
-2 -1 -0 -0 -1 -1 -1 -1 -2 -2 -1 -1 -1 -0 0 0 -0 -1 -1 -1 -2 -2 -3 -3 -2 -2 -2 -3 -3 -3 -3 -3 -3 -2 -1 -1 -2 -3 -4 -3 -3 -2 -2 -2 -2 -2 -2 -2 -2
-1 -1 -0 -0 -1 -1 -0 -0 -2 -2 -2 -1 -1 -1 -0 -0 -1 -1 -1 -1 -2 -2 -2 -2 -2 -2 -2 -2 -2 -2 -2 -2 -2 -2 -1 -1 -2 -3 -3 -2 -2 -1 -1 -1 -2 -2 -2 -2 -1
-1 -1 -1 -1 -1 -1 0 0 -2 -3 -2 -1 -1 -1 -1 -2 -2 -2 -2 -2 -2 -2 -1 -1 -1 -1 -1 -1 -1 -1 -2 -2 -2 -1 -1 -1 -2 -2 -3 -2 -2 -2 -2 -2 -2 -2 -2 -1 -1
-1 -1 -1 -1 -1 -0 0 -0 -2 -3 -3 -2 -2 -2 -2 -2 -3 -3 -2 -2 -2 -1 -1 -1 -1 -1 -1 -1 -1 -1 -1 -2 -2 -2 -2 -2 -2 -2 -3 -2 -2 -2 -2 -2 -3 -2 -2 -1 -0
0 0 0 -0 -1 -1 -0 -1 -2 -3 -3 -3 -2 -2 -2 -2 -3 -3 -3 -2 -2 -1 -1 -1 -1 -1 -1 -1 -1 -1 -1 -2 -2 -2 -2 -2 -2 -3 -3 -3 -2 -2 -2 -3 -3 -2 -1 -1 -0
2 2 1 0 -1 -1 -1 -1 -2 -3 -3 -3 -2 -2 -2 -2 -2 -2 -3 -3 -2 -1 -0 -0 -1 -1 -1 -1 -1 -2 -2 -2 -2 -3 -3 -3 -3 -3 -3 -3 -2 -2 -3 -3 -3 -3 -2 -1 -1
2 2 2 1 0 -1 -1 -1 -2 -3 -3 -3 -3 -2 -2 -2 -2 -2 -2 -2 -2 -1 -1 -0 -1 -1 -1 -1 -2 -2 -2 -2 -2 -3 -3 -3 -4 -3 -3 -2 -2 -2 -3 -3 -3 -3 -2 -1 -1
3 2 2 2 0 -1 -1 -1 -2 -3 -3 -3 -3 -3 -2 -2 -2 -2 -2 -2 -2 -1 -1 -0 -1 -1 -1 -1 -1 -1 -1 -1 -2 -2 -3 -3 -3 -3 -3 -2 -2 -2 -3 -3 -3 -2 -1 -1 -1
3 2 2 2 0 -1 -1 -2 -2 -3 -3 -3 -4 -3 -3 -2 -2 -2 -2 -2 -2 -2 -1 -1 -0 -1 -1 -2 -1 -1 -1 -1 -1 -2 -3 -3 -3 -3 -3 -2 -2 -3 -3 -3 -2 -1 -0 0 1
3 2 1 1 1 -1 -1 -2 -3 -3 -3 -4 -4 -4 -3 -2 -2 -2 -2 -1 -1 -1 -1 -1 -0 -1 -1 -1 -1 -1 -1 -1 -1 -1 -2 -3 -3 -3 -3 -3 -2 -3 -3 -3 -2 -1 0 1 1
3 2 1 1 0 -0 -1 -1 -2 -3 -3 -3 -3 -3 -3 -3 -2 -2 -2 -2 -2 -1 -1 -1 -1 -0 -1 -1 -1 -1 -1 -1 -1 -1 -2 -3 -3 -4 -4 -3 -3 -3 -3 -2 -2 -1 -0 1 1
4 3 1 1 0 -0 -0 -0 -1 -2 -3 -3 -3 -3 -3 -3 -3 -2 -2 -2 -2 -1 -1 -1 -1 -1 -1 -1 -1 -1 -1 -1 -1 -1 -1 -2 -3 -4 -4 -4 -3 -3 -3 -3 -2 -2 -1 1 1
4 3 1 0 -0 -0 -0 -0 -1 -2 -2 -2 -2 -2 -2 -3 -3 -2 -2 -2 -1 -1 -1 -1 -1 -1 -1 -1 -1 -1 -1 -1 -1 -1 -1 -2 -3 -3 -4 -4 -3 -3 -3 -3 -3 -2 -1 0 1
4 3 2 0 -0 -0 0 0 0 -1 -2 -2 -2 -2 -2 -3 -3 -2 -2 -1 -1 -1 -1 -1 -1 -1 -1 -1 -1 -1 -1 -1 -1 -1 -1 -1 -2 -3 -3 -4 -4 -3 -3 -3 -3 -2 -2 -1 -0
4 3 2 0 -0 0 1 1 1 0 -1 -2 -3 -3 -3 -3 -3 -3 -2 -1 -1 -1 -1 -1 -1 -2 -2 -2 -1 -1 -1 -1 -1 -1 -1 -1 -1 -2 -3 -4 -4 -4 -3 -3 -3 -3 -3 -2 -2
3 3 2 1 0 1 2 2 2 1 -0 -2 -3 -4 -3 -3 -3 -3 -3 -2 -1 -1 -1 -1 -1 -2 -2 -2 -2 -2 -2 -1 -1 -1 -1 -1 -1 -2 -3 -3 -4 -4 -4 -3 -3 -3 -3 -3 -3
3 3 3 2 1 1 2 3 3 2 1 -1 -3 -4 -4 -3 -3 -3 -3 -2 -1 -1 -1 -1 -1 -1 -2 -2 -2 -2 -2 -2 -2 -1 -1 -1 -1 -2 -3 -3 -4 -4 -4 -4 -4 -4 -4 -4 -4
3 3 3 3 2 1 2 3 3 3 2 1 -2 -3 -3 -3 -3 -3 -3 -3 -2 -1 -1 -2 -2 -2 -2 -2 -2 -2 -2 -2 -2 -2 -1 -1 -1 -2 -3 -3 -4 -4 -4 -4 -4 -4 -4 -5 -5
2 2 2 2 2 2 2 3 3 3 2 1 -0 -2 -2 -2 -3 -3 -3 -3 -3 -2 -2 -2 -2 -2 -2 -2 -2 -2 -2 -2 -2 -2 -2 -2 -2 -2 -2 -3 -4 -4 -4 -4 -4 -4 -5 -5 -6
2 2 2 2 3 3 2 3 3 2 1 1 -0 -2 -2 -2 -2 -3 -4 -3 -3 -2 -2 -2 -2 -2 -2 -2 -2 -2 -2 -2 -2 -3 -3 -2 -2 -2 -3 -3 -4 -4 -4 -5 -5 -5 -5 -6 -6